SCP
0 1 1 2 2 1 0 0 0 0 0 0 0 1 1 0 0 0 1 1 2 2 3 4 5 5 5 5 4 4 3 3 3 3 4 4 4 3 2 2 2 2 2 2 2 2 2 1 1
1 1 1 2 2 1 0 0 0 0 0 0 0 1 1 1 1 1 1 1 2 2 3 4 5 6 5 5 5 4 3 2 2 3 3 4 4 4 3 2 2 2 2 2 2 2 2 2 1
0 1 1 1 1 1 0 0 0 0 0 0 1 1 1 1 1 1 1 1 2 3 3 4 6 7 6 5 5 4 3 3 2 2 3 4 4 4 4 4 3 3 2 2 2 2 2 2 1
0 1 1 1 1 0 0 0 0 0 0 1 1 2 2 1 1 1 1 2 3 3 3 5 7 7 7 5 5 4 4 3 3 2 2 3 4 5 5 5 4 3 3 3 2 2 2 2 2
0 1 1 1 0 0 0 0 0 0 0 1 2 2 2 2 2 2 2 2 3 3 3 4 6 7 7 6 5 5 4 3 3 2 2 3 4 5 6 5 5 4 3 3 3 3 2 2 2
0 1 1 1 0 0 0 0 0 0 0 1 2 2 2 2 2 2 2 3 4 4 4 4 6 7 6 6 5 5 4 4 3 3 3 3 3 5 6 6 5 5 4 4 3 3 3 3 3
0 0 0 0 0 0 0 0 0 0 1 1 2 2 1 2 3 3 3 4 5 5 4 4 5 6 6 6 6 5 4 4 4 3 3 3 3 4 5 6 6 5 5 4 4 4 3 3 3
0 0 0 0 0 0 0 0 0 0 1 2 2 2 1 2 3 3 4 5 5 5 4 4 5 5 5 5 5 5 4 4 3 3 3 3 3 4 4 5 6 6 5 5 5 4 3 2 2
0 0 0 0 0 0 0 0 0 0 1 2 2 2 1 1 2 3 4 5 6 6 5 5 5 5 5 5 5 4 4 3 3 2 3 3 3 3 4 4 5 5 6 5 5 4 3 2 2
0 0 0 0 0 0 0 0 0 0 1 1 2 2 1 1 2 3 3 5 6 6 5 5 5 5 6 6 5 4 4 3 2 2 2 2 3 3 3 3 4 5 5 5 5 4 3 2 2
0 0 0 0 0 0 0 0 0 0 0 1 1 1 1 1 2 2 3 4 6 6 6 5 5 5 6 6 5 5 4 3 3 2 2 2 3 3 3 3 3 4 4 5 5 4 3 2 2
0 0 0 0 0 0 0 0 0 0 1 1 1 1 1 1 2 2 3 4 6 7 6 6 5 5 6 6 5 5 5 4 3 2 2 2 3 3 3 3 3 4 4 4 4 3 2 2 2
0 0 0 0 0 0 0 0 0 0 1 1 1 1 1 1 2 2 3 4 6 7 7 6 6 5 6 6 5 5 4 4 3 3 3 3 3 3 3 3 3 3 4 4 4 3 2 2 1
0 0 0 0 0 0 0 0 0 0 1 2 1 1 1 1 2 2 3 4 6 7 8 7 6 5 6 6 5 4 4 3 3 2 2 3 3 2 2 2 3 3 3 3 3 3 2 2 1
0 0 0 0 0 0 0 0 0 0 1 2 2 1 2 2 2 2 3 4 5 7 8 7 6 5 6 6 5 4 3 2 2 1 2 2 1 1 2 2 2 2 3 3 3 3 2 2 1
0 0 0 0 0 0 0 0 0 0 1 1 1 1 1 2 2 2 3 4 5 7 8 7 6 5 5 6 5 4 2 1 1 1 1 1 0 1 1 2 2 2 2 3 3 3 2 2 1
0 0 0 0 0 0 0 0 0 0 0 1 1 1 1 1 2 2 3 4 5 6 6 6 4 4 5 5 4 3 2 1 1 1 0 0 0 0 1 1 1 2 2 2 2 2 2 1 1
0 0 0 0 0 0 0 0 0 0 0 0 0 0 0 0 1 2 3 3 4 5 5 4 4 4 5 5 4 2 1 1 1 1 0 0 0 0 1 1 1 1 1 2 2 2 1 1 1
0 0 0 0 0 0 0 0 0 0 0 0 0 0 0 0 1 2 3 4 3 3 3 3 4 4 5 4 3 2 1 1 1 1 1 0 0 1 1 1 1 1 1 1 1 1 1 1 1
0 0 0 0 0 0 0 0 0 0 0 0 0 0 0 1 1 2 3 3 3 3 3 3 4 4 4 3 3 2 2 1 1 1 1 1 1 1 1 1 1 1 1 1 1 1 1 1 0
0 0 0 0 0 0 0 0 0 0 0 0 0 0 0 1 2 3 3 3 3 3 3 3 3 3 3 3 3 2 2 2 1 1 1 1 1 1 1 1 1 1 1 1 1 1 1 0 0
0 0 0 0 0 0 0 0 0 0 0 0 0 0 0 0 1 2 3 3 3 3 3 4 3 3 3 3 3 3 2 2 1 1 1 1 1 1 1 1 1 1 1 1 1 1 1 0 0
0 0 0 0 0 0 0 0 0 0 0 0 0 0 0 0 1 1 1 2 2 3 3 4 4 3 3 3 3 3 2 2 1 1 1 1 1 1 1 1 0 0 0 1 1 1 1 0 0
0 0 0 0 0 0 0 0 0 0 0 0 0 0 0 0 0 0 0 1 1 2 3 3 3 3 3 3 3 3 2 2 2 2 1 1 1 1 1 1 1 0 0 0 1 1 1 1 1
0 0 0 0 0 0 0 0 0 0 0 0 0 0 0 0 0 0 0 0 1 1 1 2 3 3 3 3 3 3 2 2 2 2 2 2 2 1 1 1 1 1 0 0 1 1 1 1 1
0 0 0 0 0 0 0 0 0 0 0 0 0 0 0 0 0 0 0 0 0 0 0 1 2 3 3 3 3 3 2 2 2 2 2 2 2 1 1 1 0 0 0 0 0 1 1 1 1
0 0 0 0 0 0 0 0 0 0 0 0 0 0 0 0 0 0 0 0 0 0 0 0 1 1 2 3 3 2 2 2 2 2 2 2 2 1 1 1 0 0 0 0 0 1 1 1 1
0 0 0 0 0 0 0 0 0 0 0 0 0 0 0 0 0 0 0 0 0 0 0 0 0 0 1 1 2 2 2 2 1 1 1 2 2 2 1 1 1 1 0 0 0 1 1 1 1
0 0 0 0 0 0 0 0 0 0 0 0 0 0 0 0 0 0 0 0 0 0 0 0 0 0 0 0 1 1 2 2 2 1 1 1 1 1 1 1 1 1 0 0 0 1 1 1 1
0 0 0 0 0 0 0 0 0 0 0 0 0 0 0 0 0 0 0 0 0 0 0 0 0 0 0 0 0 1 1 2 2 2 1 1 1 1 1 1 1 1 0 0 0 1 1 1 1
Wind_Speed
6 5 3 3 5 5 8 6 5 4 3 2 2 3 4 4 3 2 5 3 2 1 2 3 2 1 4 4 4 5 6 7 7 8 8 8 8 7 7 7 8 7 7 8 8 8 8 8 9
5 3 3 4 7 9 8 7 7 4 1 1 3 4 4 3 2 2 3 2 2 1 1 2 2 1 2 4 5 5 5 6 7 7 7 7 7 7 7 7 7 7 7 8 8 8 8 8 8
3 2 3 4 7 9 7 4 4 2 1 2 2 3 3 2 1 1 4 2 1 1 1 2 2 2 2 4 4 5 5 6 6 7 7 7 7 7 7 7 7 7 7 7 7 8 8 8 8
2 3 3 6 9 8 6 2 1 3 2 2 3 3 1 2 3 3 3 1 1 0 0 2 2 1 2 3 4 4 5 6 6 6 7 7 7 7 7 7 6 6 7 7 7 7 8 8 8
2 3 5 7 10 7 4 3 3 4 3 2 3 4 2 1 3 3 2 1 1 1 0 1 1 1 1 2 3 4 4 5 6 6 6 7 7 7 6 6 6 6 6 6 7 7 8 8 8
2 3 6 8 10 7 5 4 5 5 5 4 4 6 3 1 3 4 3 2 1 0 0 1 0 2 0 1 3 4 4 4 5 6 6 6 6 6 6 6 6 5 6 6 7 7 7 7 7
3 3 5 7 7 8 5 4 5 6 6 5 5 6 4 2 3 4 3 2 2 1 1 1 2 1 1 1 2 3 3 4 5 5 5 5 5 6 7 6 6 5 5 6 6 7 7 7 7
1 2 5 6 8 7 3 3 3 5 5 3 4 6 5 4 4 4 3 2 2 1 1 1 2 2 2 3 2 2 2 3 3 4 4 4 5 5 5 5 6 5 6 5 5 6 6 6 6
2 4 6 6 6 4 2 3 2 3 5 5 5 7 8 5 4 4 4 3 2 2 2 2 2 2 2 3 3 3 3 3 3 4 3 4 5 5 5 4 4 5 6 6 6 6 6 6 6
3 5 6 3 4 4 3 4 4 4 6 6 6 6 6 3 3 3 4 4 4 3 3 2 2 2 2 2 3 3 4 4 4 4 4 3 3 4 4 4 3 4 5 5 5 5 5 5 4
2 4 3 4 4 5 5 5 5 7 7 8 8 7 6 4 4 5 5 5 5 4 4 3 3 3 2 2 2 2 2 3 3 4 4 3 3 3 3 3 3 4 5 4 5 5 3 3 3
3 3 4 3 3 4 6 6 6 8 9 8 8 7 6 7 6 6 6 6 5 5 4 3 3 3 3 2 2 2 2 2 2 3 4 3 2 3 3 3 3 3 3 4 3 2 3 3 4
4 3 3 4 4 5 6 8 8 9 9 9 7 6 6 6 7 6 6 6 5 5 4 4 3 3 2 2 2 2 2 2 3 2 3 3 2 3 3 3 3 3 3 3 3 3 3 3 3
2 3 4 5 5 4 5 7 8 9 7 7 7 7 6 6 7 6 6 6 5 5 5 4 4 3 3 3 2 2 2 2 3 3 3 4 3 3 3 3 3 3 3 3 3 3 3 3 3
3 4 4 4 5 4 5 8 9 7 7 8 7 7 7 7 7 7 6 6 5 5 4 5 4 3 4 3 3 2 2 2 2 3 3 4 3 4 4 3 4 3 4 4 3 3 3 3 3
4 5 5 2 3 4 6 10 5 4 6 8 8 7 7 6 7 6 6 5 5 4 4 4 3 3 3 3 2 2 2 2 2 2 3 3 3 3 3 3 3 3 3 3 3 3 3 3 3
4 5 6 4 3 3 7 10 6 4 6 7 7 6 6 6 6 6 5 5 4 3 3 4 3 3 3 2 2 2 2 2 2 2 2 3 3 3 3 3 3 3 3 4 4 3 3 3 2
4 6 6 6 3 5 9 12 10 7 7 8 7 6 5 5 6 6 5 4 4 3 3 3 2 2 2 2 1 1 1 2 2 2 2 3 3 3 3 3 4 4 4 4 4 4 3 3 3
5 6 8 7 5 8 11 14 12 8 7 7 5 5 5 6 6 5 4 3 3 2 2 2 2 2 2 2 2 2 2 2 2 2 2 3 3 3 3 3 3 4 4 5 5 3 4 3 3
5 7 8 7 5 8 11 14 10 5 5 4 5 5 5 7 6 5 4 3 3 2 2 3 2 2 3 2 2 2 2 2 2 2 2 2 3 3 3 4 3 4 4 5 5 4 4 3 4
6 7 7 8 9 6 8 9 6 3 3 3 4 4 5 6 6 5 4 3 3 2 2 2 2 3 3 2 1 1 1 1 1 2 2 3 3 3 4 4 4 4 5 5 6 6 6 5 4
6 4 7 8 7 4 4 7 4 3 3 3 4 4 5 6 6 5 4 3 3 3 2 2 2 2 2 2 2 2 1 1 3 3 2 2 3 3 4 4 4 4 4 5 6 5 5 6 5
4 5 6 6 6 6 4 7 6 2 4 5 4 4 5 5 5 5 4 3 3 2 2 2 2 2 1 1 2 2 2 2 2 1 1 2 2 3 3 4 4 5 5 5 5 5 6 5 5
4 4 2 3 4 6 4 6 5 1 4 5 4 4 4 4 4 4 4 3 3 2 2 2 2 2 2 1 1 2 3 2 2 2 1 1 1 2 3 4 5 5 5 5 6 6 7 6 6
2 2 2 3 4 3 1 6 5 3 4 5 5 4 5 4 4 4 4 4 3 3 3 2 1 2 2 2 2 3 3 3 3 3 2 2 2 2 4 4 4 4 5 5 5 6 6 7 7
2 3 3 4 4 4 2 6 2 2 4 5 5 4 4 5 4 4 5 4 3 3 3 3 2 2 2 2 2 3 3 3 3 3 3 3 3 3 4 4 4 5 5 5 5 5 6 6 6
1 1 2 2 3 6 5 4 4 1 4 5 5 5 5 5 5 5 5 5 4 4 3 3 3 3 3 2 3 3 3 3 3 3 3 3 3 3 4 4 4 4 4 5 5 5 6 5 5
2 0 1 2 4 6 5 4 3 3 5 6 6 6 6 6 6 6 5 5 4 3 3 3 3 3 3 3 3 3 3 3 3 2 2 3 3 3 3 3 3 4 4 4 5 5 5 5 5
1 1 2 2 3 5 6 3 2 3 4 6 6 6 6 7 6 6 6 5 4 3 3 3 3 3 3 3 3 3 3 2 2 2 2 3 3 3 3 3 4 4 4 4 4 5 5 6 6
2 2 2 2 3 4 6 5 3 2 5 6 7 7 7 7 7 6 6 5 4 4 3 3 4 3 3 3 3 3 3 3 3 3 3 3 3 3 3 3 4 4 4 4 4 5 5 6 6
Wind_Direction
319 309 270 226 213 216 224 212 217 201 210 237 264 246 249 245 271 18 48 50 34 97 135 140 56 119 152 138 134 133 140 145 145 142 140 142 143 143 141 139 137 134 129 126 123 120 115 113 111
317 290 234 224 227 218 218 213 217 216 237 268 235 237 239 234 319 23 35 23 20 80 129 131 54 45 147 146 139 138 139 147 147 144 144 144 143 141 141 142 141 138 134 129 125 122 119 115 114
304 275 232 215 223 227 212 195 217 204 214 243 230 251 265 284 314 346 4 350 8 65 119 103 42 54 127 140 144 141 136 142 150 149 147 146 145 143 144 143 140 138 135 131 127 124 123 120 116
258 207 220 226 219 226 232 208 245 210 193 242 252 227 223 348 329 336 358 333 333 7 124 104 19 36 125 143 141 147 146 143 147 152 151 153 151 146 141 142 141 138 137 135 133 131 127 126 124
235 224 211 218 228 223 232 258 243 237 227 232 253 249 236 26 347 353 355 314 296 325 336 135 9 11 124 135 152 149 148 154 145 149 154 156 154 149 145 140 138 140 140 137 139 139 135 131 129
195 225 225 221 220 221 230 247 251 255 250 256 264 260 243 71 357 355 338 300 288 319 310 176 10 353 320 158 152 161 159 158 151 144 148 154 157 156 153 148 143 140 144 142 141 144 144 140 139
218 216 235 236 227 227 225 237 253 264 256 261 277 261 242 262 344 335 317 300 293 289 270 223 208 215 278 229 165 159 166 164 154 147 142 148 149 158 163 158 152 145 142 143 144 147 151 148 145
259 221 222 230 231 232 220 237 258 270 276 299 277 264 269 307 321 307 301 298 298 287 273 250 226 216 222 206 167 163 163 162 161 153 142 147 158 158 159 165 157 153 145 143 146 148 152 149 147
224 227 229 227 236 237 201 235 265 289 274 274 271 286 313 314 301 295 297 293 288 283 265 257 243 234 234 222 186 177 171 153 160 161 145 162 175 171 170 159 154 160 154 151 150 149 149 149 148
218 227 235 251 251 254 248 255 273 263 268 269 278 291 307 284 269 271 283 285 278 278 269 252 247 245 239 226 198 193 186 178 183 183 176 179 180 173 169 145 148 157 155 153 149 144 158 171 164
205 232 239 262 270 271 260 260 267 260 263 269 282 295 302 274 265 265 268 273 268 264 262 258 253 243 239 237 219 203 200 195 192 188 186 185 176 172 169 160 158 165 169 166 156 167 175 179 173
203 229 246 267 272 265 261 259 258 255 265 290 295 296 291 271 259 259 264 270 273 261 256 253 248 241 234 240 241 224 209 210 202 192 191 184 182 187 183 184 179 184 188 181 182 186 178 181 185
217 230 246 254 262 264 261 255 260 264 269 279 286 287 287 277 263 259 261 261 265 266 259 253 242 240 239 232 242 242 223 220 208 196 198 192 190 192 194 190 184 189 193 191 186 189 184 186 189
217 228 253 262 251 250 258 264 256 263 271 272 272 272 281 279 271 267 269 272 268 268 260 249 236 234 238 236 241 244 242 223 213 202 210 198 191 196 194 195 186 187 191 196 195 194 193 193 194
217 240 249 245 242 243 262 263 247 258 262 265 268 271 276 283 270 267 268 271 270 266 258 240 235 229 232 236 238 240 254 242 219 208 207 204 196 200 200 201 193 188 184 188 188 193 199 196 202
223 233 240 224 246 238 248 265 254 261 262 271 274 273 275 280 274 270 269 270 269 265 259 238 225 226 228 240 248 243 246 247 227 209 204 200 196 205 207 196 199 191 188 183 182 195 196 198 207
219 246 259 263 239 247 241 265 270 272 270 277 281 281 280 288 292 283 273 271 270 259 266 244 226 223 225 239 249 255 253 255 243 214 201 195 192 206 211 199 197 195 195 193 188 194 198 197 207
242 253 262 268 271 263 256 264 274 273 273 275 277 279 281 288 298 292 281 277 276 277 280 259 237 234 227 221 243 247 243 265 258 221 198 192 199 204 205 204 202 200 199 196 193 188 188 197 205
265 263 269 278 287 275 268 272 276 275 269 274 277 277 282 288 300 302 300 293 278 276 284 265 233 229 223 213 222 228 234 246 261 226 195 194 206 206 197 205 207 210 208 201 195 186 184 189 192
248 263 275 283 289 281 281 278 272 268 262 271 284 294 297 302 312 316 318 310 299 284 277 252 238 234 226 225 227 234 241 251 260 224 201 201 205 210 203 204 211 210 207 203 199 195 195 196 198
255 257 277 290 300 271 286 270 240 254 249 291 297 300 311 310 310 310 308 303 303 300 284 260 257 254 238 218 188 215 239 272 280 253 221 208 210 211 214 211 217 211 211 206 207 208 205 200 202
267 270 277 285 287 284 291 284 257 263 265 296 311 311 311 318 317 307 303 306 304 301 289 278 282 267 236 202 199 213 225 252 270 264 243 220 218 219 217 216 224 220 219 215 212 214 218 207 205
277 296 282 277 267 273 248 260 269 255 274 286 298 314 315 324 326 315 317 320 320 315 312 312 304 289 276 227 223 241 241 256 275 277 258 259 231 222 222 223 224 225 223 220 219 219 221 217 217
276 266 245 234 242 254 242 244 274 275 297 302 304 317 319 319 331 331 344 344 339 337 327 318 301 305 315 297 255 251 248 254 263 263 267 267 260 241 226 226 228 229 228 224 222 223 224 222 220
305 286 263 232 227 249 186 247 266 356 342 324 318 322 327 322 334 336 344 342 343 342 334 303 301 309 313 308 278 265 258 246 242 241 237 251 249 255 246 234 233 233 233 231 227 225 226 225 220
312 294 287 289 296 307 230 253 289 11 340 334 328 333 337 335 343 339 334 333 331 334 329 325 315 296 296 296 289 277 273 259 251 246 242 241 248 252 251 246 243 243 242 236 231 229 229 228 222
257 226 328 291 287 276 261 275 277 323 334 340 342 343 340 337 340 336 333 328 330 332 330 323 313 304 300 298 293 279 271 271 267 257 262 259 255 254 252 255 255 257 251 240 234 231 230 230 226
329 151 216 238 285 283 281 266 298 319 331 332 338 336 332 334 334 333 330 324 329 333 330 323 313 312 318 310 299 292 284 284 282 268 261 268 267 266 260 260 261 258 255 251 242 237 232 232 232
179 189 230 244 282 286 295 300 38 314 330 328 332 333 331 330 329 330 329 328 328 332 332 329 325 322 321 321 319 312 312 309 298 285 277 272 271 267 262 258 256 257 255 254 251 244 236 234 234
264 241 207 253 251 256 279 287 78 330 327 327 325 328 329 328 328 331 333 333 335 333 330 326 324 318 319 317 312 321 320 316 308 302 298 282 270 264 262 260 256 254 254 251 250 254 245 236 234